Location: Dodgeville, WI 53533, USA
(43.0344°N, 90.0900°W)
Time: 23:34:36
(UTC-06:00)

ISS - Pass Details

Date: 28 January 2021
Orbit: 417 x 422 km, 51.6° (Epoch: 08 March)

Event Time Altitude Azimuth Distance (km) Brightness Sun altitude
Rises 17:59:29 0° 292° (WNW) 2,372 1.0 -9.7°
Reaches altitude 10° 18:02:02 10° 312° (NW) 1,508 -0.5 -10.1°
Maximum altitude 18:04:30 19° 359° (N) 1,091 -1.8 -10.5°
Enters shadow 18:06:33 12° 40° (NE) 1,389 -1.6 -10.9°
